User: anonymous   Login
Location: Morlupo
(42.1333°N, 12.5000°E)
Time: 04:24:07
(UTC+00:00)
Language:

Cosmos 1536 Rocket - Orbit

View from above orbital plane
View from above orbital plane
View from above satellite
View from above satellite

Ground track
Ground track

The orbit data is extracted from the following two-line orbital elements,

1 14700U 84013B   20337.79253112  .00000144  00000-0  14546-4 0  9996
2 14700  82.5391  55.3098 0021159 116.9814  22.5397 14.83307273988450
Epoch (UTC): 02 December 2020 19:01:14
Eccentricity: 0.0021159
inclination: 82.5391°
perigee height: 604 km
apogee height: 634 km
right ascension of ascending node: 55.3098°
argument of perigee: 116.9814°
revolutions per day: 14.83307273
mean anomaly at epoch: 22.5397°
orbit number at epoch: 98845

The dashed part of the orbit path shows where the satellite is in the earth's shadow,  

DLR